Lid_Strength_Index
-1 0 2 2 8 8 10 9 6 7 6 5 4 5 5 5 7 8 0 0 -0 0 -1 -1 -1 -1 -2 -2 -2 -2 -2 -2 -2 -2 -2 -2 -2 -2 -2 -2 -1 -2 -2 -2 -2 -1 -2 -2 -2
0 1 1 4 10 12 10 7 7 6 5 5 5 4 5 6 4 3 2 -0 -0 -0 -1 -1 -1 -1 -1 -1 -1 -1 -1 -2 -2 -1 -1 -2 -2 -2 -2 -2 -2 -2 -2 -2 -2 -2 -1 -2 -2
-0 0 4 7 9 11 10 7 6 5 5 6 5 4 5 5 3 3 0 -1 -1 -2 -1 -1 -2 -1 -1 -1 -1 -1 -1 -1 -2 -2 -2 -2 -2 -2 -2 -2 -2 -2 -2 -2 -2 -2 -2 -1 -2
1 2 4 8 9 7 7 6 6 6 5 4 4 6 3 2 3 2 -0 -0 -0 0 -0 -1 -2 -2 -1 -1 -1 -1 -1 -1 -2 -2 -2 -2 -2 -2 -2 -2 -2 -2 -2 -2 -2 -2 -2 -2 -1
1 4 8 9 8 7 6 5 5 6 5 4 4 6 5 3 1 1 0 -0 0 -1 -1 -1 -2 -2 -1 -1 -1 -1 -0 -1 -1 -1 -1 -2 -2 -2 -2 -2 -2 -2 -2 -2 -2 -2 -1 -2 -1
5 4 9 10 8 6 5 5 5 6 5 4 5 5 4 1 2 1 0 -0 -0 -0 -1 -2 -2 -2 -2 -1 -1 -1 -1 -1 -1 -1 -1 -1 -1 -1 -2 -2 -2 -2 -2 -2 -2 -2 -2 -2 -2
5 7 9 8 8 7 6 4 5 5 6 5 4 6 3 2 1 0 0 -0 -1 -1 -1 -1 -2 -1 -2 -2 -2 -1 -1 -1 -1 -1 -1 -1 -1 -2 -2 -2 -2 -2 -2 -2 -2 -2 -2 -2 -2
4 6 8 8 8 8 5 5 4 4 6 4 4 6 5 2 1 0 1 0 0 0 -0 -1 -2 -2 -2 -2 -2 -2 -1 -1 -1 -1 -1 -1 -1 -2 -2 -2 -1 -2 -2 -2 -2 -2 -2 -2 -2
3 8 9 8 7 7 5 5 4 3 5 4 4 4 2 1 1 2 1 1 1 -0 -1 -1 -1 -1 -1 -1 -2 -2 -2 -1 -1 -1 -1 -1 -1 -1 -1 -1 -2 -2 -2 -2 -2 -2 -2 -2 -2
5 8 8 5 5 6 5 5 5 5 5 5 4 3 2 2 2 2 2 2 1 1 0 -0 -0 -1 -1 -1 -2 -2 -1 -2 -2 -1 -2 -1 -1 -1 -1 -1 -1 -1 -1 -2 -1 -2 -2 -1 -0
5 7 6 5 4 5 6 5 4 5 6 4 5 3 3 2 2 2 2 1 2 -1 -0 -0 -1 -1 -1 -0 -1 -1 -1 -1 -1 -1 -1 -1 -1 -1 -1 -0 -1 -1 -1 -1 -1 -1 -1 -0 -0
6 5 5 5 4 5 6 4 5 5 4 3 3 3 3 3 2 3 2 1 1 1 -1 -1 -1 -1 -1 -1 -0 -0 0 -1 -0 -1 -1 -0 -0 -0 -0 -0 -0 -0 -0 -0 -0 -0 -0 -0 -0
6 5 5 4 4 5 5 5 5 5 3 3 3 4 3 2 2 1 1 -0 1 0 0 -1 -1 -1 -1 -1 -0 -0 -0 -0 -1 -0 -0 -1 -0 0 -0 -0 -0 -0 -1 -0 0 -0 -0 0 -0
5 5 5 4 4 4 6 5 5 4 3 3 4 3 3 2 2 2 2 1 0 0 -1 -1 -1 -2 -1 -1 -0 -0 -0 -0 -0 -0 -0 -1 -1 -0 0 0 0 -0 -0 -0 -0 0 0 0 0
5 6 6 5 5 5 5 6 6 4 4 4 3 3 3 2 2 2 2 1 0 -1 -1 -1 -0 -1 -1 -0 -0 -0 -0 -1 -0 -0 -0 -1 -1 -0 -0 0 0 -0 -1 -0 -0 -0 0 0 0
7 7 9 6 5 5 5 9 5 4 4 4 4 3 3 3 2 2 1 1 1 -0 -1 -1 -0 -0 -0 -0 -0 -0 -0 -0 -0 -0 -1 -1 -1 -1 -0 0 0 -0 -0 0 0 0 1 1 1
8 10 9 8 5 5 6 8 5 4 4 4 4 4 3 3 2 2 1 1 1 -0 -1 -1 -1 0 0 -0 -0 -0 -1 -0 -0 -1 -0 -0 -1 -1 -0 0 0 -0 0 0 0 1 1 1 1
10 9 8 9 6 6 7 7 5 4 5 5 4 4 4 3 3 2 1 1 1 -0 -1 -1 -0 -1 -0 -0 -0 -0 -0 -0 -0 -0 -0 -1 -1 -1 -0 0 0 -0 0 1 1 1 1 1 1
7 8 9 7 6 7 8 8 6 5 5 5 4 4 4 4 3 2 2 1 1 0 -0 0 -1 -1 0 1 1 1 1 1 0 0 -0 -0 -0 -0 -0 0 0 0 1 1 1 1 2 2 1
7 8 9 7 6 7 7 7 6 5 5 5 4 4 4 4 3 3 2 2 2 1 0 -0 -0 -1 0 1 0 0 1 1 0 0 -0 -0 -0 -0 -0 -0 0 0 1 1 1 1 2 2 1
8 9 9 8 7 6 7 9 8 5 5 4 4 3 2 4 4 3 3 2 2 1 1 1 -0 -0 -1 0 0 0 0 1 1 1 1 0 -0 -0 -0 -0 0 0 1 1 1 1 2 3 2
10 7 7 8 9 11 7 13 8 7 6 5 4 4 4 4 3 3 3 3 2 2 1 0 0 -0 -0 -0 0 1 2 3 1 1 1 1 -0 -0 -1 -0 -0 0 0 1 1 1 1 2 3
8 6 7 7 9 9 9 11 9 7 7 6 5 4 4 4 4 4 3 3 2 1 1 1 0 -0 -1 0 0 1 2 1 1 1 1 1 0 -0 -0 -0 0 0 0 0 1 1 1 1 2
6 7 7 7 9 13 10 10 10 9 7 6 5 4 4 4 4 3 3 2 2 1 1 1 1 -0 -1 0 -0 1 1 2 2 2 2 1 1 0 0 -0 0 0 0 1 1 1 1 1 1
7 9 13 14 14 14 9 11 10 7 6 6 5 4 4 4 4 3 3 3 2 2 2 1 1 1 -1 1 0 1 1 1 2 1 2 2 2 1 1 0 0 0 0 0 0 1 1 1 1
8 9 12 16 15 13 10 12 9 6 5 4 4 4 4 4 4 3 3 3 2 2 2 1 1 1 0 1 0 1 1 1 1 1 1 1 1 1 0 0 0 0 0 0 0 1 1 1 1
8 10 7 11 10 12 11 10 7 6 6 5 5 5 5 4 4 4 3 3 2 2 2 1 1 1 0 1 0 1 1 1 1 1 1 1 1 0 0 0 0 0 0 0 0 1 1 1 1
7 6 11 10 15 16 12 11 10 8 7 6 6 6 5 4 4 3 3 3 2 2 1 1 1 1 1 0 0 1 1 1 1 1 1 1 1 1 1 1 0 0 0 0 1 1 1 1 1
8 9 8 9 10 14 15 12 7 7 6 6 6 5 5 4 4 3 3 2 2 2 2 1 1 1 1 0 0 -0 1 0 0 1 1 1 1 0 1 1 1 1 1 0 1 1 1 1 1
7 8 8 11 13 11 11 11 6 5 5 5 6 5 4 4 4 3 3 3 2 2 2 2 1 1 1 1 1 0 1 0 1 1 1 0 1 1 0 0 1 1 1 1 1 1 1 1 2